Regional Weather Roundup
Issued by NWS

Home | Current Version | Previous Version | Text Only | Print | Product List | Glossary On
Versions: 1 2 3 4 5 6 7 8 9 10 11 12 13 14 15 16 17 18 19 20 21 22 23 24 25 26 27 28 29 30 31 32 33 34 35 36 37 38 39 40 41 42 43 44 45 46 47 48 49 50
196
ASUS43 KMPX 291510
RWRMN
WEATHER ROUNDUP FOR MINNESOTA
NATIONAL WEATHER SERVICE TWIN CITIES/CHANHASSEN MN
1000 AM CDT SAT APR 29 2017


NOTE: "FAIR" INDICATES FEW OR NO CLOUDS BELOW 12,000 FEET WITH NO
SIGNIFICANT WEATHER AND/OR OBSTRUCTIONS TO VISIBILITY. N/A MEANS
CURRENT SKY AND/OR WEATHER CONDITIONS ARE NOT AVAILABLE.

MNZ060>063-068>070-291600-
   Twin Cities Metro

CITY           SKY/WX    TMP DP  RH WIND       PRES   REMARKS
TWIN CITIES    PTSUNNY   45  24  43 E14       30.31R
ST PAUL        CLOUDY    44  26  49 E12       30.33R
CRYSTAL        PTSUNNY   44  22  41 E8        30.31R
BLAINE         PTSUNNY   45  27  49 NE10      30.32R
LAKEVILLE      MOSUNNY   43  27  52 NE12      30.30S
EDEN PRAIRIE   MOSUNNY   47  25  42 NE9       30.30R
SOUTH ST PAUL  CLOUDY    44  24  45 E8        30.31F
LAKE ELMO      FAIR      45  28  53 NE12      30.32F
$$
MNZ001>005-007-008-013>017-022>024-027-028-291600-
   Northwest Minnesota

CITY           SKY/WX    TMP DP  RH WIND       PRES   REMARKS
BEMIDJI        SUNNY     46  20  35 S8        30.34R
HALLOCK        SUNNY     46  25  42 S7        30.33R
ROSEAU         SUNNY     45  30  57 CALM      30.34R
WARROAD        SUNNY     43  32  65 CALM      30.34R
THIEF RVR FALL SUNNY     45  22  40 VRB5      30.35R
CROOKSTON      SUNNY     45  21  39 S3        30.35R
FOSSTON        SUNNY     45  19  36 CALM      30.35R
DETROIT LAKES  SUNNY     46  27  46 S7        30.36R
MOORHEAD       SUNNY     46  28  49 S9        30.36R
PARK RAPIDS    SUNNY     46  24  42 S8        30.35R
MAHNOMEN       FAIR      44  30  57 S9        30.34R
$$
MNZ006-009>011-018-025>026-291600-
   North Central Minnesota

CITY           SKY/WX    TMP DP  RH WIND       PRES   REMARKS
BAUDETTE       SUNNY     47  24  40 E3        30.32R
FLAG ISLAND    SUNNY     37  27  65 S3        30.33R
INTL FALLS     SUNNY     44  17  33 SE5       30.34R
WASKISH        SUNNY     46  25  42 SE3       30.34R
BIG FORK       SUNNY     46  21  36 S5        30.35R
LONGVILLE      SUNNY     45  25  45 SE3       30.35S
GRAND RAPIDS   SUNNY     44  22  41 SE5       30.38R
CRANE LAKE     SUNNY     43  10  26 CALM      30.36R
ORR            SUNNY     45  12  26 S3        30.33R
COOK           SUNNY     45  18  33 E5        30.37R
WALKER         FAIR      44  25  47 E5        30.35S
$$
MNZ012-019>021-037-291600-
   Northeast Minnesota

CITY           SKY/WX    TMP DP  RH WIND       PRES   REMARKS
DULUTH         SUNNY     43  21  41 SE8       30.36R
ELY            SUNNY     41  12  30 S3        30.36R
HIBBING        SUNNY     42  21  43 E5        30.36R
EVELETH        SUNNY     42   9  25 SE5       30.37R
DULUTH HARBOR  SUNNY     43  28  56 N5        30.39R
TWO HARBORS    SUNNY     45  28  53 SE8       30.36R
SILVER BAY     SUNNY     43  23  45 E7        30.35R
GRAND MARAIS     N/A     39  32  76 S7        30.38R
G MARAIS ARPRT SUNNY     37  16  41 CALM      30.35R
$$
MNZ029>031-032-039>041-046>048-054>057-064-291600-
   West Central Minnesota

CITY           SKY/WX    TMP DP  RH WIND       PRES   REMARKS
FERGUS FALLS   SUNNY     45  27  49 S8        30.36R
WHEATON        MOSUNNY   46  21  36 SE10      30.37S
MORRIS         CLOUDY    46  27  46 SE8       30.33F
ALEXANDRIA     CLOUDY    43  25  49 S10       30.35S
ELBOW LAKE     FAIR      45  25  44 SE8       30.35S
WADENA         SUNNY     45  27  49 S6        30.35S
GLENWOOD       MOSUNNY   45  27  49 SE7       30.34S
APPLETON       MOSUNNY   45  25  45 E6        30.33F
BENSON         CLOUDY    48  19  32 SE8       30.35S
ORTONVILLE     CLOUDY    45  27  49 SE5       30.33F
MADISON        MOSUNNY   46  27  46 SE6       30.32F
WILLMAR        FAIR      46  27  46 E13       30.33S
$$
MNZ033>034-036-042>043-049>051-058-059-291600-
   Central Minnesota

CITY           SKY/WX    TMP DP  RH WIND       PRES   REMARKS
ST CLOUD       MOSUNNY   44  24  45 E7        30.33F
SAUK CENTRE    FAIR      43  27  53 SE5       30.34F
PAYNESVILLE    MOSUNNY   43  24  48 E7        30.33F
AITKIN         SUNNY     46  19  34 SE5       30.34S
PINE RIVER     SUNNY     45  27  49 S6        30.38R
BRAINERD       SUNNY     44  23  43 S6        30.36R
STAPLES        SUNNY     43  23  45 S6        30.36R
LONG PRAIRIE   FAIR      41  27  56 CALM      30.35F
LITTLE FALLS   MOSUNNY   43  27  52 SE3       30.35F
LITCHFIELD     MOSUNNY   45  28  53 E7        30.32S
BUFFALO        MOSUNNY   44  25  46 NE10      30.33S
MAPLE LAKE     MOSUNNY   45  28  52 E12       30.34S
HUTCHINSON     SUNNY     45  29  53 NE14      30.32S
$$
MNZ037-044-045-052-053-291600-
   East Central Minnesota

CITY           SKY/WX    TMP DP  RH WIND       PRES   REMARKS
PRINCETON      CLOUDY    46  25  42 E7        30.34S
MORA           CLOUDY    43  27  52 CALM      30.36S
CAMBRIDGE      MOSUNNY   46  28  49 NE6       30.32S
RUSH CITY      CLOUDY    43  26  51 CALM      30.34S
MOOSE LAKE     SUNNY     45  23  42 E5        30.34S
HINCKLEY       FAIR      45  27  49 E6        30.34S
CLOQUET        SUNNY     43  18  36 CALM      30.36R
MCGREGOR       SUNNY     45  27  49 SE3       30.36S
$$
MNZ071>073-080-081-089-090-097-098-291600-
   Southwest Minnesota

CITY           SKY/WX    TMP DP  RH WIND       PRES   REMARKS
MONTEVIDEO     CLOUDY    46  25  42 SE9       30.32F
GRANITE FALLS  CLOUDY    46  27  47 E9        30.33S
CANBY          MOSUNNY   45  25  45 SE8       30.33F
MARSHALL       PTSUNNY   43  27  53 E10       30.30F
REDWOOD FALLS  PTSUNNY   45  25  45 E13G18    30.30F
OLIVIA         CLOUDY    45  27  49 E10       30.30F
PIPESTONE      CLOUDY    43  25  49 E12       30.25F
WINDOM         PTSUNNY   43  30  61 NE13      30.27R
WORTHINGTON    CLOUDY    41  31  67 NE16      30.25F
JACKSON        PTSUNNY   41  32  70 E13       30.26S
TRACY          PTSUNNY   44  30  57 E12       30.29F
SLAYTON        CLOUDY    41  30  65 NE12      30.27F
$$
MNZ065>067-074>077-082>085-091>093-291600-
   South Central Minnesota

CITY           SKY/WX    TMP DP  RH WIND       PRES   REMARKS
MANKATO        MOSUNNY   42  27  55 E13       30.28S
NEW ULM        MOSUNNY   43  27  52 E13       30.29S
ST JAMES       MOSUNNY   43  30  61 NE10      30.29S
FAIRMONT       PTSUNNY   41  31  67 E16       30.26S
GLENCOE        MOSUNNY   46  30  54 NE8G16    30.30F
FARIBAULT      CLOUDY    45  27  49 NE12G17   30.28S
OWATONNA       CLOUDY    43  28  56 NE13      30.26S
WASECA         CLOUDY    41  30  65 E16       30.27F
ALBERT LEA     PTSUNNY   39  28  65 E12       30.24R
$$
MNZ078>079-086>088-094>096-291600-
   Southeast Minnesota

CITY           SKY/WX    TMP DP  RH WIND       PRES   REMARKS
ROCHESTER      PTSUNNY   40  29  64 NE14      30.24F
RED WING       CLOUDY    45  21  39 E8G17     30.28F
STANTON        PTSUNNY   45  28  52 E17G23    30.27F
DODGE CENTER   PTSUNNY   39  28  65 NE10      30.25S
WINONA         CLOUDY    43  27  52 E9G16     30.26F
AUSTIN         CLOUDY    41  30  65 E13       30.24R
PRESTON        PTSUNNY   40  27  61 E12       30.23F
$$
ABBREVIATIONS USED IN REMARKS
   TC - TEMPERATURES IN CELSIUS
  WCI - WIND CHILL INDEX
   HX - HEAT INDEX
  VSB - VISIBILITY
$$




USA.gov is the U.S. government's official web portal to all federal, state and local government web resources and services.